| time (UTC) | temp F | wind direction | speed MPH | gust MPH | rain 1hr in | rain 24hr in | rain mn in | humidity % | barometer mb |
| 20260510184528 | 80 | 140 | 3.0 | 10.0 | 0.00 | 0.03 | 0.00 | 62 | 1015.1 |
| 20260510183031 | 80 | 211 | 1.0 | 9.0 | 0.00 | 0.03 | 0.00 | 62 | 1015.2 |
| 20260510181528 | 80 | 171 | 4.0 | 10.0 | 0.00 | 0.03 | 0.00 | 62 | 1015.4 |
| 20260510180025 | 80 | 140 | 1.0 | 9.0 | 0.00 | 0.03 | 0.00 | 63 | 1015.6 |
| 20260510174524 | 79 | 227 | 2.0 | 8.0 | 0.00 | 0.03 | 0.00 | 65 | 1015.6 |
| 20260510173023 | 79 | 188 | 3.0 | 11.0 | 0.00 | 0.03 | 0.00 | 65 | 1015.6 |
| 20260510171522 | 80 | 157 | 4.0 | 10.0 | 0.00 | 0.03 | 0.00 | 64 | 1015.8 |
| 20260510170019 | 79 | 223 | 4.0 | 8.0 | 0.00 | 0.03 | 0.00 | 67 | 1015.9 |
| 20260510164516 | 78 | 146 | 7.0 | 12.0 | 0.00 | 0.03 | 0.00 | 70 | 1016.0 |
| 20260510163016 | 77 | 152 | 4.0 | 10.0 | 0.00 | 0.03 | 0.00 | 69 | 1016.0 |
| 20260510161512 | 76 | 153 | 4.0 | 7.0 | 0.00 | 0.03 | 0.00 | 71 | 1016.1 |
| 20260510160011 | 76 | 124 | 4.0 | 7.0 | 0.00 | 0.03 | 0.00 | 73 | 1016.0 |
| 20260510154508 | 75 | 144 | 5.0 | 8.0 | 0.00 | 0.03 | 0.00 | 73 | 1016.0 |
| 20260510153006 | 75 | 142 | 5.0 | 7.0 | 0.00 | 0.03 | 0.00 | 75 | 1015.7 |
| 20260510151507 | 74 | 132 | 4.0 | 7.0 | 0.00 | 0.03 | 0.00 | 76 | 1015.6 |
| 20260510150004 | 75 | 144 | 4.0 | 7.0 | 0.00 | 0.03 | 0.00 | 75 | 1015.6 |
| 20260510144503 | 74 | 144 | 3.0 | 6.0 | 0.00 | 0.03 | 0.00 | 78 | 1015.5 |
| 20260510143002 | 75 | 144 | 2.0 | 5.0 | 0.00 | 0.03 | 0.00 | 76 | 1015.2 |
| 20260510141502 | 75 | 69 | 2.0 | 5.0 | 0.00 | 0.03 | 0.00 | 76 | 1015.1 |
| 20260510140100 | 74 | 330 | 2.0 | 6.0 | 0.00 | 0.03 | 0.00 | 74 | 1015.1 |
| 20260510134621 | 73 | 332 | 2.0 | 6.0 | 0.00 | 0.03 | 0.00 | 76 | 1015.1 |
| 20260510133054 | 72 | 307 | 3.0 | 6.0 | 0.00 | 0.03 | 0.00 | 77 | 1015.2 |
| 20260510131551 | 71 | 307 | 3.0 | 6.0 | 0.00 | 0.03 | 0.00 | 80 | 1015.1 |
| 20260510130049 | 71 | 313 | 1.0 | 5.0 | 0.00 | 0.05 | 0.00 | 81 | 1015.0 |
| 20260510124554 | 70 | 313 | 3.0 | 5.0 | 0.00 | 0.05 | 0.00 | 84 | 1015.1 |
| 20260510123044 | 69 | 313 | 2.0 | 4.0 | 0.00 | 0.05 | 0.00 | 84 | 1015.0 |
| 20260510121541 | 69 | 315 | 4.0 | 6.0 | 0.00 | 0.05 | 0.00 | 85 | 1014.8 |
| 20260510120041 | 68 | 314 | 3.0 | 5.0 | 0.00 | 0.05 | 0.00 | 87 | 1014.6 |
| 20260510114540 | 67 | 315 | 3.0 | 6.0 | 0.00 | 0.05 | 0.00 | 87 | 1014.6 |
| 20260510113038 | 67 | 314 | 4.0 | 7.0 | 0.00 | 0.05 | 0.00 | 88 | 1014.3 |
| 20260510111551 | 67 | 311 | 3.0 | 5.0 | 0.00 | 0.05 | 0.00 | 89 | 1014.1 |
| 20260510110035 | 67 | 312 | 1.0 | 3.0 | 0.00 | 0.05 | 0.00 | 89 | 1014.1 |
| 20260510104544 | 67 | 312 | 2.0 | 4.0 | 0.00 | 0.05 | 0.00 | 89 | 1013.7 |
| 20260510103037 | 66 | 312 | 0.0 | 3.0 | 0.00 | 0.05 | 0.00 | 89 | 1013.5 |
| 20260510101534 | 67 | 312 | 2.0 | 4.0 | 0.00 | 0.05 | 0.00 | 88 | 1013.5 |
| 20260510100032 | 67 | 311 | 1.0 | 4.0 | 0.00 | 0.05 | 0.00 | 89 | 1013.4 |
| 20260510094537 | 67 | 312 | 1.0 | 5.0 | 0.00 | 0.05 | 0.00 | 89 | 1013.3 |
| 20260510093030 | 67 | 312 | 2.0 | 6.0 | 0.00 | 0.05 | 0.00 | 89 | 1013.1 |
| 20260510091529 | 67 | 312 | 0.0 | 3.0 | 0.00 | 0.05 | 0.00 | 88 | 1013.0 |
| 20260510090029 | 67 | 312 | 2.0 | 4.0 | 0.00 | 0.05 | 0.00 | 88 | 1013.0 |
| 20260510084526 | 67 | 313 | 3.0 | 7.0 | 0.00 | 0.05 | 0.00 | 88 | 1013.0 |
| 20260510083025 | 67 | 312 | 4.0 | 7.0 | 0.00 | 0.05 | 0.00 | 88 | 1012.8 |
| 20260510081526 | 67 | 313 | 4.0 | 8.0 | 0.00 | 0.05 | 0.00 | 88 | 1012.8 |
| 20260510080022 | 68 | 313 | 5.0 | 8.0 | 0.00 | 0.05 | 0.00 | 87 | 1012.7 |
| 20260510074526 | 68 | 293 | 3.0 | 7.0 | 0.00 | 0.05 | 0.00 | 87 | 1012.5 |
| 20260510073022 | 68 | 302 | 2.0 | 5.0 | 0.00 | 0.05 | 0.00 | 87 | 1012.4 |
| 20260510071520 | 68 | 304 | 3.0 | 8.0 | 0.00 | 0.05 | 0.00 | 87 | 1012.3 |
| 20260510070022 | 68 | 300 | 2.0 | 5.0 | 0.00 | 0.05 | 0.00 | 87 | 1012.5 |
| 20260510064520 | 68 | 297 | 0.0 | 6.0 | 0.00 | 0.05 | 0.00 | 87 | 1012.4 |
| 20260510063020 | 68 | 273 | 1.0 | 4.0 | 0.00 | 0.05 | 0.00 | 87 | 1012.3 |
| 20260510061527 | 68 | 271 | 0.0 | 4.0 | 0.00 | 0.05 | 0.00 | 88 | 1012.4 |
| 20260510060039 | 67 | 255 | 1.0 | 5.0 | 0.00 | 0.05 | 0.00 | 88 | 1012.5 |
| 20260510054517 | 68 | 254 | 0.0 | 5.0 | 0.00 | 0.05 | 0.00 | 88 | 1012.4 |
| 20260510053016 | 68 | 255 | 0.0 | 4.0 | 0.00 | 0.05 | 0.00 | 89 | 1012.5 |
| 20260510051515 | 67 | 223 | 1.0 | 3.0 | 0.00 | 0.05 | 0.00 | 89 | 1012.5 |
| 20260510050015 | 68 | 221 | 1.0 | 4.0 | 0.00 | 0.05 | 0.00 | 89 | 1012.5 |
| 20260510044516 | 68 | 217 | 0.0 | 4.0 | 0.00 | 0.05 | 0.00 | 89 | 1012.5 |
| 20260510043014 | 68 | 217 | 0.0 | 0.0 | 0.00 | 0.05 | 0.00 | 88 | 1012.6 |
| 20260510041516 | 68 | 217 | 0.0 | 0.0 | 0.00 | 0.05 | 0.00 | 89 | 1012.6 |
| 20260510040012 | 68 | 217 | 0.0 | 3.0 | 0.00 | 0.05 | 0.05 | 88 | 1012.8 |
| 20260510034511 | 68 | 216 | 0.0 | 2.0 | 0.00 | 0.05 | 0.05 | 88 | 1012.7 |
| 20260510033010 | 68 | 216 | 0.0 | 0.0 | 0.00 | 0.05 | 0.05 | 88 | 1012.6 |
| 20260510031510 | 68 | 216 | 0.0 | 2.0 | 0.00 | 0.05 | 0.05 | 87 | 1012.5 |
| 20260510030009 | 69 | 216 | 0.0 | 1.0 | 0.00 | 0.05 | 0.05 | 87 | 1012.5 |
| 20260510024511 | 69 | 216 | 0.0 | 2.0 | 0.00 | 0.05 | 0.05 | 87 | 1012.5 |
| 20260510023025 | 69 | 216 | 0.0 | 2.0 | 0.00 | 0.05 | 0.05 | 86 | 1012.5 |
| 20260510021508 | 69 | 216 | 0.0 | 2.0 | 0.00 | 0.05 | 0.05 | 86 | 1012.2 |
| 20260510020008 | 69 | 216 | 0.0 | 0.0 | 0.00 | 0.05 | 0.05 | 86 | 1012.0 |
| 20260510014507 | 70 | 216 | 0.0 | 3.0 | 0.00 | 0.05 | 0.05 | 85 | 1012.0 |
| 20260510013012 | 70 | 217 | 1.0 | 4.0 | 0.00 | 0.05 | 0.05 | 85 | 1011.8 |
| 20260510011512 | 70 | 215 | 1.0 | 5.0 | 0.00 | 0.05 | 0.05 | 85 | 1011.7 |
| 20260510010011 | 70 | 213 | 1.0 | 5.0 | 0.00 | 0.05 | 0.05 | 85 | 1011.5 |
| 20260510004506 | 70 | 210 | 2.0 | 7.0 | 0.00 | 0.05 | 0.05 | 85 | 1011.7 |
| 20260510003006 | 70 | 203 | 0.0 | 6.0 | 0.00 | 0.05 | 0.05 | 86 | 1011.4 |
| 20260510001506 | 70 | 211 | 1.0 | 6.0 | 0.00 | 0.05 | 0.05 | 86 | 1011.0 |
| 20260510000005 | 70 | 213 | 2.0 | 6.0 | 0.00 | 0.05 | 0.05 | 86 | 1011.2 |
| 20260509234504 | 71 | 218 | 2.0 | 5.0 | 0.00 | 0.05 | 0.05 | 86 | 1011.1 |
| 20260509233004 | 71 | 219 | 1.0 | 4.0 | 0.00 | 0.05 | 0.05 | 86 | 1010.9 |
| 20260509231503 | 71 | 219 | 1.0 | 5.0 | 0.00 | 0.05 | 0.05 | 86 | 1010.9 |
| 20260509230003 | 71 | 222 | 1.0 | 4.0 | 0.00 | 0.05 | 0.05 | 86 | 1011.0 |
| 20260509224502 | 71 | 223 | 0.0 | 4.0 | 0.00 | 0.05 | 0.05 | 86 | 1011.0 |
| 20260509223002 | 71 | 208 | 3.0 | 6.0 | 0.00 | 0.05 | 0.05 | 86 | 1010.9 |
| 20260509221501 | 71 | 190 | 1.0 | 6.0 | 0.00 | 0.05 | 0.05 | 86 | 1010.9 |
| 20260509220100 | 71 | 149 | 0.0 | 3.0 | 0.00 | 0.05 | 0.05 | 86 | 1010.9 |
| 20260509214600 | 71 | 149 | 2.0 | 4.0 | 0.00 | 0.05 | 0.05 | 85 | 1010.9 |
| 20260509213117 | 71 | 150 | 2.0 | 5.0 | 0.01 | 0.05 | 0.05 | 85 | 1010.9 |
| 20260509211615 | 70 | 171 | 1.0 | 5.0 | 0.02 | 0.05 | 0.05 | 86 | 1010.9 |
| 20260509204603 | 70 | 197 | 1.0 | 4.0 | 0.03 | 0.05 | 0.05 | 86 | 1010.9 |
| 20260509203101 | 70 | 214 | 1.0 | 3.0 | 0.02 | 0.04 | 0.04 | 85 | 1011.2 |
| 20260509201556 | 70 | 216 | 3.0 | 6.0 | 0.01 | 0.03 | 0.03 | 83 | 1011.4 |
| 20260509200055 | 71 | 198 | 2.0 | 5.0 | 0.00 | 0.02 | 0.02 | 81 | 1011.4 |
| 20260509194559 | 72 | 182 | 1.0 | 5.0 | 0.00 | 0.02 | 0.02 | 80 | 1011.4 |
| 20260509193054 | 72 | 199 | 2.0 | 6.0 | 0.00 | 0.02 | 0.02 | 78 | 1011.5 |
| 20260509191555 | 73 | 138 | 3.0 | 7.0 | 0.00 | 0.02 | 0.02 | 77 | 1011.8 |
| 20260509190055 | 73 | 141 | 4.0 | 6.0 | 0.00 | 0.02 | 0.02 | 76 | 1011.9 |